Mazatlan - G. Buelna, Mexico

10:28 PM MST on February 10, 2016 (GMT -0700)
Gen Rafael Buelna International

Weather History for MMMZ - September, 2013

Change the Weather History Date:

Saturday, September 7, 2013

  Actual Average Record
Temperature  
Mean Temperature 84 °F -  
Max Temperature 90 °F 86 °F 93 °F (2015)
Min Temperature 77 °F 74 °F 73 °F (1996)
Cooling Degree Days 18    
Growing Degree Days 34 (Base 50)    
Moisture  
Dew Point 69 °F    
Average Humidity 65    
Maximum Humidity 89    
Minimum Humidity 55    
Precipitation  
Precipitation 0.12 in - - ()
Sea Level Pressure  
Sea Level Pressure 29.81 in    
Wind  
Wind Speed 6 mph ()    
Max Wind Speed 9 mph    
Max Gust Speed -    
Visibility 10.8 miles    
Events Rain , Thunderstorm    
Averages and records for this station are not official NWS values.
T = Trace of Precipitation, MM = Missing Value Source: Averaged Metar Reports

Daily Weather History Graph

Daily Weather History Graph

Search for Another Location

Airport or City:

Trip Planner

Search our weather history database for the weather conditions in past years. The results will help you decide how hot, cold, wet, or windy it might be!

Date:

Astronomy

Sep. 07, 2013 Rise Set
Actual Time 6:49 AM MDT 7:16 PM MDT
Civil Twilight 6:26 AM MDT 7:38 PM MDT
Nautical Twilight 6:00 AM MDT 8:05 PM MDT
Astronomical Twilight 5:33 AM MDT 8:32 PM MDT
Moon 8:44 AM MDT (9/7) 8:41 PM MDT (9/7)
Length of Visible Light 13h 12m
Length of Day
12h 27m
Waxing Crescent, 5% of the Moon is Illuminated
Sep 7
Waxing Crescent
Sep 12
First Quarter
Sep 19
Full
Sep 26
Last Quarter
Oct 4
New

Hourly Weather History & Observations

Time (MDT) Temp. Heat Index Dew Point Humidity Pressure Visibility Wind Dir Wind Speed Gust Speed Precip Events Conditions
12:40 AM 78.8 °F - 66.2 °F 65% 29.84 in 8.0 mi North 6.9 mph - N/A   Overcast
1:45 AM 78.8 °F - 66.2 °F 65% 29.84 in 8.0 mi NNE 6.9 mph - N/A   Overcast
2:52 AM 78.8 °F - 66.2 °F 65% 29.82 in 8.0 mi NNE 8.1 mph - N/A   Overcast
3:00 AM 81 °F - 77 °F 84% 29.84 in - NNE 4.5 mph - -  
3:43 AM 78.8 °F - 66.2 °F 65% 29.81 in 8.0 mi North 6.9 mph - N/A Thunderstorm Thunderstorm
4:44 AM 78.8 °F - 66.2 °F 65% 29.81 in 8.0 mi North 6.9 mph - N/A Thunderstorm Thunderstorm
5:47 AM 78.8 °F - 64.4 °F 61% 29.82 in 8.0 mi West 6.9 mph - N/A Rain , Thunderstorm Light Thunderstorms and Rain
6:27 AM 77.0 °F - 64.4 °F 65% 29.84 in 6.0 mi Calm Calm - N/A Rain , Thunderstorm Thunderstorms and Rain
6:42 AM 77.0 °F - 73.4 °F 89% 29.84 in 5.0 mi ESE 6.9 mph - N/A Rain , Thunderstorm Thunderstorms and Rain
7:43 AM 77.0 °F - 68.0 °F 74% 29.85 in 10.0 mi Calm Calm - N/A   Overcast
8:48 AM 78.8 °F - 68.0 °F 69% 29.85 in 12.0 mi NE 6.9 mph - N/A   Overcast
9:00 AM 79 °F - 76 °F 88% 29.87 in - ENE 2.2 mph - -  
9:44 AM 80.6 °F 82.7 °F 66.2 °F 61% 29.86 in 12.0 mi ENE 6.9 mph - N/A   Overcast
10:42 AM 78.8 °F - 66.2 °F 65% 29.86 in 12.0 mi SSE 6.9 mph - N/A   Mostly Cloudy
11:40 AM 80.6 °F 83.2 °F 68.0 °F 65% 29.87 in 12.0 mi NNE 8.1 mph - N/A   Mostly Cloudy
12:00 PM 90 °F - 79 °F 63% 29.87 in - East 4.5 mph - -  
12:45 PM 84.2 °F 87.3 °F 68.0 °F 58% 29.84 in 15.0 mi South 6.9 mph - N/A   Mostly Cloudy
1:46 PM 84.2 °F 86.6 °F 66.2 °F 55% 29.81 in 12.0 mi SSW 9.2 mph - N/A   Mostly Cloudy
2:43 PM 84.2 °F 86.6 °F 66.2 °F 55% 29.79 in 15.0 mi SW 9.2 mph - N/A   Scattered Clouds
3:00 PM 89 °F - 75 °F 55% 29.80 in - South 6.7 mph - -  
3:43 PM 84.2 °F 86.6 °F 66.2 °F 55% 29.75 in 15.0 mi SSW 9.2 mph - N/A   Mostly Cloudy
4:41 PM 82.4 °F 84.6 °F 66.2 °F 58% 29.75 in 15.0 mi SW 9.2 mph - N/A   Mostly Cloudy
5:44 PM 82.4 °F 84.6 °F 66.2 °F 58% 29.74 in 15.0 mi WSW 9.2 mph - N/A   Mostly Cloudy
6:00 PM 88 °F - 76 °F 61% 29.78 in - WSW 4.5 mph - -  
6:43 PM 82.4 °F 85.4 °F 68.0 °F 62% 29.75 in 15.0 mi West 8.1 mph - N/A   Mostly Cloudy
7:44 PM 78.8 °F - 66.2 °F 65% 29.77 in 12.0 mi WSW 6.9 mph - N/A   Mostly Cloudy
8:44 PM 78.8 °F - 66.2 °F 65% 29.78 in 10.0 mi Calm Calm - N/A   Mostly Cloudy
9:00 PM 84 °F - 77 °F 75% 29.80 in - West 4.5 mph - -  
9:44 PM 80.6 °F 83.2 °F 68.0 °F 65% 29.80 in 10.0 mi NNE 6.9 mph - N/A   Mostly Cloudy
10:43 PM 78.8 °F - 66.2 °F 65% 29.80 in 10.0 mi North 4.6 mph - N/A   Overcast
11:41 PM 78.8 °F - 66.2 °F 65% 29.81 in 10.0 mi NNE 6.9 mph - N/A   Overcast